Location: Lachepaillet
(43.4918°N, 1.4874°W)
Time: 02:24:20
(UTC+00:00)

Cosmos 1536 - Pass Details

Date: 15 May 2026
Orbit: 482 x 500 km, 82.5° (Epoch: 8 June)

Event Time Altitude Azimuth Distance (km) Brightness Sun altitude
Rises 23:07:07 0° 344° (NNW) 2,569 7.6 -26.2°
Reaches altitude 10° 23:09:18 10° 337° (NNW) 1,686 6.3 -26.3°
Enters shadow 23:11:43 32° 307° (NW) 873 4.2 -26.4°
